Time,TemperatureF,DewpointF,PressureIn,WindDirection,WindDirectionDegrees,WindSpeedMPH,WindSpeedGustMPH,Humidity,HourlyPrecipIn,Conditions,Clouds,dailyrainin,SoftwareType,DateUTC
2013-03-13 00:10:00,47.1,46.6,29.96,South,180,0.0,-999.0,98,-99.99,,,0.00,Acu-Link.com,2013-03-13 07:10:00,
2013-03-13 00:25:00,47.3,46.8,29.96,South,180,0.0,-999.0,98,-99.99,,,0.00,Acu-Link.com,2013-03-13 07:25:00,
2013-03-13 00:40:00,46.6,46.1,29.96,South,180,0.0,-999.0,98,-99.99,,,0.00,Acu-Link.com,2013-03-13 07:40:00,
2013-03-13 00:55:00,46.2,45.7,29.96,South,180,0.0,-999.0,98,-99.99,,,0.00,Acu-Link.com,2013-03-13 07:55:00,
2013-03-13 01:10:00,46.0,45.5,29.96,South,180,0.0,-999.0,98,-99.99,,,0.00,Acu-Link.com,2013-03-13 08:10:00,
2013-03-13 01:25:00,46.4,45.9,29.96,South,180,0.0,-999.0,98,-99.99,,,0.00,Acu-Link.com,2013-03-13 08:25:00,
2013-03-13 01:40:00,45.5,45.0,29.96,South,180,0.0,-999.0,98,-99.99,,,0.00,Acu-Link.com,2013-03-13 08:40:00,
2013-03-13 01:56:00,45.7,45.2,29.95,SE,135,0.0,-999.0,98,-99.99,,,0.00,Acu-Link.com,2013-03-13 08:56:00,
2013-03-13 02:11:00,45.1,44.6,29.96,SE,135,0.0,-999.0,98,-99.99,,,0.00,Acu-Link.com,2013-03-13 09:11:00,
2013-03-13 03:11:00,44.4,43.9,29.95,SSW,202,0.0,-999.0,98,-99.99,,,0.00,Acu-Link.com,2013-03-13 10:11:00,
2013-03-13 03:26:00,44.2,43.7,29.96,SE,135,0.0,-999.0,98,-99.99,,,0.00,Acu-Link.com,2013-03-13 10:26:00,
2013-03-13 03:41:00,43.9,43.4,29.96,SSE,157,0.0,-999.0,98,-99.99,,,0.00,Acu-Link.com,2013-03-13 10:41:00,
2013-03-13 04:11:00,43.2,42.7,29.95,ESE,112,0.0,-999.0,98,-99.99,,,0.00,Acu-Link.com,2013-03-13 11:11:00,
2013-03-13 04:27:00,43.0,42.5,29.95,North,0,0.0,-999.0,98,-99.99,,,0.00,Acu-Link.com,2013-03-13 11:27:00,
2013-03-13 04:42:00,43.2,42.7,29.95,West,270,0.0,-999.0,98,-99.99,,,0.00,Acu-Link.com,2013-03-13 11:42:00,
2013-03-13 04:57:00,42.8,42.3,29.95,South,180,0.0,-999.0,98,-99.99,,,0.00,Acu-Link.com,2013-03-13 11:57:00,
2013-03-13 05:12:00,42.3,41.8,29.96,South,180,0.0,-999.0,98,-99.99,,,0.00,Acu-Link.com,2013-03-13 12:12:00,
2013-03-13 05:27:00,42.1,41.6,29.95,South,180,0.0,-999.0,98,-99.99,,,0.00,Acu-Link.com,2013-03-13 12:27:00,
2013-03-13 05:42:00,41.7,41.2,29.95,West,270,0.0,-999.0,98,-99.99,,,0.00,Acu-Link.com,2013-03-13 12:42:00,
2013-03-13 05:58:00,41.7,41.2,29.94,ENE,67,0.0,-999.0,98,-99.99,,,0.00,Acu-Link.com,2013-03-13 12:58:00,
2013-03-13 06:13:00,41.9,41.4,29.96,South,180,0.0,-999.0,98,-99.99,,,0.00,Acu-Link.com,2013-03-13 13:13:00,
2013-03-13 06:28:00,41.2,40.7,29.96,NE,45,0.0,-999.0,98,-99.99,,,0.00,Acu-Link.com,2013-03-13 13:28:00,
2013-03-13 06:43:00,41.2,40.7,29.95,ESE,112,0.0,-999.0,98,-99.99,,,0.00,Acu-Link.com,2013-03-13 13:43:00,
2013-03-13 06:58:00,41.4,40.9,29.97,East,90,0.0,-999.0,98,-99.99,,,0.00,Acu-Link.com,2013-03-13 13:58:00,
2013-03-13 07:13:00,41.7,41.2,29.96,North,0,0.0,-999.0,98,-99.99,,,0.00,Acu-Link.com,2013-03-13 14:13:00,
2013-03-13 07:28:00,42.4,41.9,29.98,North,0,0.0,-999.0,98,-99.99,,,0.00,Acu-Link.com,2013-03-13 14:28:00,
2013-03-13 07:43:00,42.6,42.1,29.98,North,0,0.0,-999.0,98,-99.99,,,0.00,Acu-Link.com,2013-03-13 14:43:00,
2013-03-13 07:58:00,43.2,42.7,29.98,ESE,112,0.0,-999.0,98,-99.99,,,0.00,Acu-Link.com,2013-03-13 14:58:00,
2013-03-13 08:14:00,44.6,44.1,29.98,South,180,0.0,-999.0,98,-99.99,,,0.00,Acu-Link.com,2013-03-13 15:14:00,
2013-03-13 08:29:00,48.0,47.5,29.98,WSW,247,0.0,-999.0,98,-99.99,,,0.00,Acu-Link.com,2013-03-13 15:29:00,
2013-03-13 08:44:00,55.2,54.6,29.98,NE,45,0.0,-999.0,98,-99.99,,,0.00,Acu-Link.com,2013-03-13 15:44:00,
2013-03-13 08:59:00,62.8,62.2,29.99,SSW,202,1.1,-999.0,98,-99.99,,,0.00,Acu-Link.com,2013-03-13 15:59:00,
2013-03-13 09:14:00,67.6,67.0,29.98,South,180,0.0,-999.0,98,-99.99,,,0.00,Acu-Link.com,2013-03-13 16:14:00,
2013-03-13 09:29:00,72.9,22.5,29.99,SW,225,0.0,-999.0,15,-99.99,,,0.00,Acu-Link.com,2013-03-13 16:29:00,
2013-03-13 09:44:00,77.2,-30.5,30.00,South,180,0.0,-999.0,1,-99.99,,,0.00,Acu-Link.com,2013-03-13 16:44:00,
2013-03-13 09:59:00,82.2,-27.5,30.00,ESE,112,0.0,-999.0,1,-99.99,,,0.00,Acu-Link.com,2013-03-13 16:59:00,
2013-03-13 10:14:00,89.1,-23.5,30.00,NNE,22,1.1,-999.0,1,-99.99,,,0.00,Acu-Link.com,2013-03-13 17:14:00,
2013-03-13 10:30:00,91.6,-22.0,29.99,South,180,1.1,-999.0,1,-99.99,,,0.00,Acu-Link.com,2013-03-13 17:30:00,
2013-03-13 10:45:00,93.7,-20.7,29.99,East,90,2.7,-999.0,1,-99.99,,,0.00,Acu-Link.com,2013-03-13 17:45:00,
2013-03-13 11:00:00,94.8,-20.1,29.99,SW,225,0.0,-999.0,1,-99.99,,,0.00,Acu-Link.com,2013-03-13 18:00:00,
2013-03-13 11:15:00,94.8,-20.1,29.99,ESE,112,0.0,-999.0,1,-99.99,,,0.00,Acu-Link.com,2013-03-13 18:15:00,
2013-03-13 11:30:00,96.4,-19.2,29.99,ESE,112,1.1,-999.0,1,-99.99,,,0.00,Acu-Link.com,2013-03-13 18:30:00,
2013-03-13 11:45:00,97.3,-18.6,29.98,ESE,112,3.2,-999.0,1,-99.99,,,0.00,Acu-Link.com,2013-03-13 18:45:00,
2013-03-13 12:16:00,99.9,-17.1,29.98,ESE,112,1.7,-999.0,1,-99.99,,,0.00,Acu-Link.com,2013-03-13 19:16:00,
2013-03-13 12:34:00,100.8,-16.6,29.97,SSE,157,1.7,-999.0,1,-99.99,,,0.00,Acu-Link.com,2013-03-13 19:34:00,
2013-03-13 12:49:00,102.9,-15.4,29.96,WSW,247,1.7,-999.0,1,-99.99,,,0.00,Acu-Link.com,2013-03-13 19:49:00,
2013-03-13 13:05:00,93.2,-21.0,29.96,SW,225,6.8,-999.0,1,-99.99,,,0.00,Acu-Link.com,2013-03-13 20:05:00,
2013-03-13 13:21:00,88.2,-24.0,29.95,East,90,4.2,-999.0,1,-99.99,,,0.00,Acu-Link.com,2013-03-13 20:21:00,
2013-03-13 13:52:00,89.6,-23.2,29.95,SSE,157,2.7,-999.0,1,-99.99,,,0.00,Acu-Link.com,2013-03-13 20:52:00,
2013-03-13 14:07:00,85.8,-25.4,29.94,West,270,4.2,-999.0,1,-99.99,,,0.00,Acu-Link.com,2013-03-13 21:07:00,
2013-03-13 14:23:00,86.0,-25.3,29.93,NW,315,2.7,-999.0,1,-99.99,,,0.00,Acu-Link.com,2013-03-13 21:23:00,
2013-03-13 14:38:00,84.7,-26.1,29.92,West,270,2.7,-999.0,1,-99.99,,,0.00,Acu-Link.com,2013-03-13 21:38:00,
2013-03-13 14:54:00,85.1,-25.8,29.94,West,270,3.2,-999.0,1,-99.99,,,0.00,Acu-Link.com,2013-03-13 21:54:00,
2013-03-13 15:09:00,85.8,-25.4,29.93,SSW,202,4.2,-999.0,1,-99.99,,,0.00,Acu-Link.com,2013-03-13 22:09:00,
2013-03-13 15:35:00,85.3,-25.7,29.92,WSW,247,5.3,-999.0,1,-99.99,,,0.00,Acu-Link.com,2013-03-13 22:35:00,
2013-03-13 15:52:00,85.8,-25.4,29.91,WNW,292,2.7,-999.0,1,-99.99,,,0.00,Acu-Link.com,2013-03-13 22:52:00,
2013-03-13 17:21:00,83.1,-27.0,29.90,ESE,112,1.1,-999.0,1,-99.99,,,0.00,Acu-Link.com,2013-03-14 00:21:00,
2013-03-13 17:38:00,83.1,-27.0,29.91,SSW,202,2.7,-999.0,1,-99.99,,,0.00,Acu-Link.com,2013-03-14 00:38:00,
2013-03-13 17:53:00,82.9,-27.1,29.91,SW,225,3.2,-999.0,1,-99.99,,,0.00,Acu-Link.com,2013-03-14 00:53:00,
2013-03-13 18:08:00,80.6,-28.5,29.90,West,270,3.7,-999.0,1,-99.99,,,0.00,Acu-Link.com,2013-03-14 01:08:00,
2013-03-13 18:23:00,79.3,-29.3,29.91,South,180,2.7,-999.0,1,-99.99,,,0.00,Acu-Link.com,2013-03-14 01:23:00,
2013-03-13 18:38:00,76.3,-31.0,29.90,WNW,292,1.7,-999.0,1,-99.99,,,0.00,Acu-Link.com,2013-03-14 01:38:00,
2013-03-13 18:53:00,73.2,-32.9,29.91,SW,225,0.0,-999.0,1,-99.99,,,0.00,Acu-Link.com,2013-03-14 01:53:00,
2013-03-13 19:08:00,70.7,-34.4,29.91,SW,225,0.0,-999.0,1,-99.99,,,0.00,Acu-Link.com,2013-03-14 02:08:00,
2013-03-13 19:23:00,68.0,-36.0,29.92,SW,225,0.0,-999.0,1,-99.99,,,0.00,Acu-Link.com,2013-03-14 02:23:00,
2013-03-13 19:38:00,66.2,-37.1,29.91,WNW,292,0.0,-999.0,1,-99.99,,,0.00,Acu-Link.com,2013-03-14 02:38:00,
2013-03-13 19:53:00,64.4,-38.2,29.92,SSE,157,0.0,-999.0,1,-99.99,,,0.00,Acu-Link.com,2013-03-14 02:53:00,
2013-03-13 20:09:00,62.8,-39.2,29.92,ESE,112,0.0,-999.0,1,-99.99,,,0.00,Acu-Link.com,2013-03-14 03:09:00,
2013-03-13 20:24:00,61.9,-39.7,29.93,SE,135,0.0,-999.0,1,-99.99,,,0.00,Acu-Link.com,2013-03-14 03:24:00,
2013-03-13 20:39:00,60.8,-40.4,29.93,SE,135,0.0,-999.0,1,-99.99,,,0.00,Acu-Link.com,2013-03-14 03:39:00,
2013-03-13 20:54:00,59.7,-41.0,29.93,SW,225,0.0,-999.0,1,-99.99,,,0.00,Acu-Link.com,2013-03-14 03:54:00,
2013-03-13 21:09:00,58.6,-41.7,29.94,SSE,157,0.0,-999.0,1,-99.99,,,0.00,Acu-Link.com,2013-03-14 04:09:00,
2013-03-13 21:24:00,57.7,-42.3,29.94,ENE,67,0.0,-999.0,1,-99.99,,,0.00,Acu-Link.com,2013-03-14 04:24:00,
2013-03-13 21:39:00,57.0,56.4,29.94,SSE,157,0.0,-999.0,98,-99.99,,,0.00,Acu-Link.com,2013-03-14 04:39:00,
2013-03-13 21:54:00,56.7,56.1,29.95,ESE,112,0.0,-999.0,98,-99.99,,,0.00,Acu-Link.com,2013-03-14 04:54:00,
2013-03-13 22:09:00,56.1,55.5,29.95,SSE,157,0.0,-999.0,98,-99.99,,,0.00,Acu-Link.com,2013-03-14 05:09:00,
2013-03-13 22:25:00,55.2,54.6,29.95,South,180,0.0,-999.0,98,-99.99,,,0.00,Acu-Link.com,2013-03-14 05:25:00,
2013-03-13 22:40:00,54.9,54.3,29.94,South,180,0.0,-999.0,98,-99.99,,,0.00,Acu-Link.com,2013-03-14 05:40:00,
2013-03-13 22:55:00,54.0,53.4,29.95,South,180,0.0,-999.0,98,-99.99,,,0.00,Acu-Link.com,2013-03-14 05:55:00,
2013-03-13 23:10:00,53.2,52.6,29.94,South,180,0.0,-999.0,98,-99.99,,,0.00,Acu-Link.com,2013-03-14 06:10:00,
2013-03-13 23:25:00,52.3,51.8,29.94,South,180,0.0,-999.0,98,-99.99,,,0.00,Acu-Link.com,2013-03-14 06:25:00,
2013-03-13 23:40:00,51.8,51.3,29.94,South,180,0.0,-999.0,98,-99.99,,,0.00,Acu-Link.com,2013-03-14 06:40:00,
2013-03-13 23:55:00,51.3,50.8,29.94,South,180,0.0,-999.0,98,-99.99,,,0.00,Acu-Link.com,2013-03-14 06:55:00,